THORAD AGENA D DEB, 4821

Orbit data source: Space-Track

THORAD AGENA D DEB, 4821 is space debris in SSO originally from a launch on Wed, 08 Apr 1970 UTC launched from the Air Force Western Test Range (AFWTR). Debris objects in space refer to the collection of defunct objects orbiting the Earth. Examples of debris include non-operational satellites, rocket bodies, and fragments generated from explosions, collisions, or faulty payload assembly.

Loading next visibility...
Identifier
4821, 1970-025EC
Orbit
SSO
Country
Flag of USUS
Related business
Manufacturer
Unknown
Mission
Spacecraft
Bus & Motor
Unknown
Mass
Unknown
Launch date (UTC)
1970-04-08 (56 years ago)
Launch vehicle
Unknown
Launch site
Air Force Western Test Range (AFWTR)
Object type
Payload
Rocket body
Debris
Shape & HBR
Unknown shape, 0.1 m
Radar Cross Section
Small (<0.1 m²)

Expand to show TLE details & history
Last TLE update: 9 hours ago

TLE from 9 hours ago
0 THORAD AGENA D DEB
1  4821U 70025EC  26124.08553409  .00000233  00000-0  37906-3 0  9994
2  4821 100.0175 167.3287 0008639 340.6310  48.2783 13.59260287770221
Epoch: 2026-05-04T02:03Z
TLE epoch observation values (Epoch: 2026-05-04T02:03:10.145Z)
Latitude
28.54551°
Longitude
-90.9289°
Altitude
1,037.532 km
Speed
7.338 km/s
True Right ascension
10h 47m 22s
True Declination
28° 24' 25"
Sunlit
Object was in daylight at epoch
Visualization orbit readout
Latitude
Unknown
Longitude
Unknown
Altitude
Unknown
Speed
Unknown
Apparent Right ascension
Unknown
Apparent Declination
Unknown
Sunlit
N/A
Visualization observer readout
Local Sidereal Time
18:45:35
Azimuth
Unknown
Elevation
Unknown
Doppler factor
Unknown
Orbital elements
Apogee altitude
1,042.092 km
Perigee altitude
1,029.282 km
Semi-major axis
7,413.824 km
Eccentricity
0.00086
Inclination
100.0175°
RAAN
167.3287°
Arg. of periapsis
340.631°
True anomaly
48.35224°
Mean anomaly
48.2783°
Eccentric anomaly
48.31527°
Mean motion
3.40001 °/min
Orbital period
105.88 mins
BSTAR
0.00037906
Loading maneuver chart data...
Computing Atmospheric mass density...

Documentation

Showing up to 5 results
|